Le nostre stazioni meteo in Italia

Pubblicità
Il mio iltempo24.it
Vignola, Italia (16137): Temperatura & dewpoint: 19.05.2019 08:00:00 - 25.05.2019 08:00:00 (CEST)Vignola, Italia (16137): reduced air pressure: 19.05.2019 08:00:00 - 25.05.2019 08:00:00 (CEST)Vignola, Italia (16137): precipitazioni: 19.05.2019 08:00:00 - 25.05.2019 08:00:00 (CEST)
Data & Tempo tt [°C] td [°C] ppp [hPa] rr [mm]
25.05.2019 08:00:00 - - - -
25.05.2019 07:00:00 14,9 10,7 1013,8 0,0
25.05.2019 06:00:00 15,3 8,8 1013,1 0,0
25.05.2019 05:00:00 15,1 9,5 1012,9 0,0
25.05.2019 04:00:00 14,5 10,5 1012,9 0,0
25.05.2019 03:00:00 15,6 10,6 1012,7 0,0
25.05.2019 02:00:00 17,2 9,9 1012,6 0,0
25.05.2019 01:00:00 - - - -
25.05.2019 00:00:00 18,1 10,5 1012,5 0,0
24.05.2019 23:00:00 18,1 11,4 1012,4 0,0
24.05.2019 22:00:00 18,8 11,8 1012,2 0,0
24.05.2019 21:00:00 18,2 11,7 1011,7 0,0
24.05.2019 20:00:00 21,4 13,1 1011,3 0,0
24.05.2019 19:00:00 23,7 11,4 1011,0 0,0
24.05.2019 18:00:00 - - - -
24.05.2019 17:00:00 24,3 9,1 1011,6 0,0
24.05.2019 16:00:00 24,3 9,5 1012,1 0,0
24.05.2019 15:00:00 26,0 12,1 1012,0 0,0
24.05.2019 14:00:00 25,5 11,3 1012,4 0,0
24.05.2019 13:00:00 24,6 12,2 1013,1 -
24.05.2019 12:00:00 23,4 12,1 1013,6 0,0
24.05.2019 11:00:00 22,3 - 1014,0 0,0
24.05.2019 10:00:00 21,0 11,9 1014,1 0,0
24.05.2019 09:00:00 19,1 10,9 1014,4 0,0
24.05.2019 08:00:00 16,8 10,4 1014,5 0,0
24.05.2019 07:00:00 13,8 10,4 1014,4 0,0
24.05.2019 06:00:00 12,1 9,3 1014,0 0,0
24.05.2019 05:00:00 13,4 9,3 1013,7 0,0
24.05.2019 04:00:00 14,2 9,4 1013,9 0,0
24.05.2019 03:00:00 15,6 9,9 1014,1 0,0
24.05.2019 02:00:00 15,2 10,4 1014,3 0,0
24.05.2019 01:00:00 15,1 10,5 1014,3 0,0
24.05.2019 00:00:00 16,3 10,8 1014,2 0,0
23.05.2019 23:00:00 14,3 11,6 1014,2 0,0
23.05.2019 22:00:00 15,6 12,7 1014,1 0,0
23.05.2019 21:00:00 17,5 13,4 1013,7 0,0
23.05.2019 20:00:00 22,8 10,9 1013,1 0,0
23.05.2019 19:00:00 24,1 10,4 1013,3 0,0
23.05.2019 18:00:00 24,8 10,7 1013,5 0,0
23.05.2019 17:00:00 24,6 11,2 1013,7 0,0
23.05.2019 16:00:00 24,6 10,8 1014,2 0,0
23.05.2019 15:00:00 23,9 10,9 1014,7 0,0
23.05.2019 14:00:00 23,7 10,7 1015,2 0,0
23.05.2019 13:00:00 23,1 11,8 1015,7 0,0
23.05.2019 12:00:00 21,8 12,1 1016,4 0,0
23.05.2019 11:00:00 19,5 13,2 1016,6 0,0
23.05.2019 10:00:00 19,2 12,0 1016,6 0,0
23.05.2019 09:00:00 18,5 11,1 1016,6 0,0
23.05.2019 08:00:00 16,1 10,4 1016,5 0,0
23.05.2019 07:00:00 13,2 10,0 1016,7 0,0
23.05.2019 06:00:00 13,5 9,0 1016,4 0,0
23.05.2019 05:00:00 13,2 10,2 1016,5 0,0
23.05.2019 04:00:00 13,1 10,3 1016,5 0,0
23.05.2019 03:00:00 13,5 9,5 1015,7 0,0
23.05.2019 02:00:00 13,3 10,8 1016,0 0,0
23.05.2019 01:00:00 13,7 10,1 1016,1 0,0
23.05.2019 00:00:00 16,2 10,3 1015,2 0,0
22.05.2019 23:00:00 16,3 10,6 1015,1 0,0
22.05.2019 22:00:00 16,4 10,3 1014,6 0,0
22.05.2019 21:00:00 16,7 10,5 1014,3 0,0
22.05.2019 20:00:00 20,6 9,5 1013,6 0,0
22.05.2019 19:00:00 20,5 9,4 1013,4 0,0
22.05.2019 18:00:00 21,9 9,8 1013,4 0,0
22.05.2019 17:00:00 21,6 9,8 1013,7 0,0
22.05.2019 16:00:00 20,0 9,6 1014,0 0,0
22.05.2019 15:00:00 22,5 11,3 1013,8 0,0
22.05.2019 14:00:00 23,3 10,7 1013,9 0,0
22.05.2019 13:00:00 22,9 - - -
22.05.2019 12:00:00 21,8 10,9 1014,6 0,0
22.05.2019 11:00:00 20,2 11,1 1014,6 0,0
22.05.2019 10:00:00 18,9 10,5 1014,7 0,0
22.05.2019 09:00:00 17,6 - - 0,0
22.05.2019 08:00:00 17,4 10,0 1014,4 0,0
22.05.2019 07:00:00 14,0 8,4 1014,1 0,0
22.05.2019 06:00:00 12,0 7,9 1013,9 0,0
22.05.2019 05:00:00 10,5 7,7 1013,8 0,0
22.05.2019 04:00:00 10,9 7,8 1013,2 0,0
22.05.2019 03:00:00 11,3 8,3 1013,0 0,0
22.05.2019 02:00:00 13,3 6,9 1012,7 0,0
22.05.2019 01:00:00 14,9 5,9 1012,5 0,0
22.05.2019 00:00:00 13,3 6,9 1013,0 0,0
21.05.2019 23:00:00 14,1 7,4 1013,0 0,0
21.05.2019 22:00:00 16,8 6,0 1012,5 0,0
21.05.2019 21:00:00 18,9 5,0 1011,1 0,0
21.05.2019 20:00:00 21,0 5,4 1009,9 0,0
21.05.2019 19:00:00 22,5 6,3 1009,2 0,0
21.05.2019 18:00:00 22,2 9,0 1009,1 0,0
21.05.2019 17:00:00 23,2 12,8 1009,2 0,0
21.05.2019 16:00:00 23,8 13,1 1009,1 0,0
21.05.2019 15:00:00 23,6 13,5 1009,0 0,0
21.05.2019 14:00:00 22,9 13,1 1008,9 0,0
21.05.2019 13:00:00 21,9 11,6 1008,8 0,0
21.05.2019 12:00:00 20,7 10,8 1008,7 0,0
21.05.2019 11:00:00 19,2 10,7 1008,6 0,0
21.05.2019 10:00:00 18,7 10,3 1008,5 0,0
21.05.2019 09:00:00 16,5 9,2 1008,3 0,0
21.05.2019 08:00:00 13,7 9,7 1008,0 0,0
21.05.2019 07:00:00 12,0 9,7 1007,9 0,0
21.05.2019 06:00:00 11,8 9,4 1007,5 0,0
21.05.2019 05:00:00 12,4 9,8 1007,2 0,0
21.05.2019 04:00:00 12,9 9,3 1007,2 0,0
21.05.2019 03:00:00 13,2 8,9 1007,4 0,0
21.05.2019 02:00:00 13,9 8,1 1007,3 0,0
21.05.2019 01:00:00 13,5 10,1 1007,8 0,0
21.05.2019 00:00:00 14,1 8,5 1007,8 -
20.05.2019 23:00:00 14,1 11,3 1007,6 0,0
20.05.2019 22:00:00 14,8 11,4 1007,4 0,0
20.05.2019 21:00:00 15,4 10,6 1007,0 0,0
20.05.2019 20:00:00 16,6 11,5 1006,7 0,0
20.05.2019 19:00:00 18,0 10,1 1006,3 0,0
20.05.2019 18:00:00 18,7 10,8 1006,1 0,0
20.05.2019 17:00:00 18,2 11,3 1005,8 0,0
20.05.2019 16:00:00 20,5 10,3 1005,3 0,0
20.05.2019 15:00:00 20,3 11,2 1005,7 0,0
20.05.2019 14:00:00 18,0 11,1 1006,0 0,0
20.05.2019 13:00:00 18,3 9,4 1005,7 0,0
20.05.2019 12:00:00 17,7 10,8 1005,6 0,0
20.05.2019 11:00:00 15,9 11,9 1005,6 0,0
20.05.2019 10:00:00 14,6 11,7 1005,5 0,2
20.05.2019 09:00:00 13,4 10,8 1005,3 0,2
20.05.2019 08:00:00 12,6 10,5 1005,1 0,0
20.05.2019 07:00:00 12,1 10,5 1004,8 0,0
20.05.2019 06:00:00 12,3 10,9 1004,7 0,0
20.05.2019 05:00:00 12,3 10,7 1004,8 0,0
20.05.2019 04:00:00 12,5 10,9 1005,0 0,0
20.05.2019 03:00:00 12,6 11,0 1005,0 0,0
20.05.2019 02:00:00 12,8 11,2 1005,1 0,0
20.05.2019 01:00:00 12,8 11,2 1005,2 0,2
20.05.2019 00:00:00 13,0 11,4 1005,5 0,2
19.05.2019 23:00:00 13,3 11,7 1005,3 0,0
19.05.2019 22:00:00 13,4 11,6 1005,2 0,0
19.05.2019 21:00:00 13,4 11,6 1004,9 0,0
19.05.2019 20:00:00 13,8 11,8 1004,7 1,4
19.05.2019 19:00:00 14,4 12,3 1004,4 0,4
19.05.2019 18:00:00 16,5 12,1 1004,0 0,0
19.05.2019 17:00:00 17,0 12,1 1003,9 0,0
19.05.2019 16:00:00 16,8 11,7 1004,0 0,0
19.05.2019 15:00:00 17,2 11,9 1004,0 0,0
19.05.2019 14:00:00 16,8 12,3 1004,1 0,2
19.05.2019 13:00:00 14,7 12,0 1004,3 1,4
19.05.2019 12:00:00 14,6 11,2 1004,4 0,0
19.05.2019 11:00:00 14,2 11,2 1004,3 0,0
19.05.2019 10:00:00 13,6 11,1 1004,5 0,0
19.05.2019 09:00:00 13,1 11,0 1004,4 0,0
19.05.2019 08:00:00 12,8 11,2 1004,5 0,0

tt = Temperatura
td = dewpoint
ppp = reduced air pressure
rr = precipitazioni

Stazioni seguenti

WeatherPro
AMSI
MeteoEarth